Location: Austin
(30.3000°N, 97.7500°W)
Time: 10:18:25
(UTC-05:00)

ASTEX 1 - Pass Details

Date: 26 May 2023
Orbit: 720 x 739 km, 92.7° (Epoch: 31 May)

Event Time Altitude Azimuth Distance (km) Brightness Sun altitude
Rises 21:19:23 0° 177° (S) 3,135 6.3 -11.1°
Reaches altitude 10° 21:21:40 10° 179° (S) 2,220 5.6 -11.5°
Maximum altitude 21:26:35 75° 265° (W) 762 3.6 -12.4°
Drops below altitude 10° 21:31:32 10° 350° (N) 2,244 6.6 -13.3°
Sets 21:33:51 0° 352° (N) 3,172 7.4 -13.7°
